User: anonymous   Login
Location: Innsbruck
(47.2657°N, 11.3914°E)
Time: 12:18:02
(UTC+02:00)
Language:

BEESAT 3 - Orbit

View from above orbital plane
View from above orbital plane
View from above satellite
View from above satellite

Ground track
Ground track

The orbit data is extracted from the following two-line orbital elements,

1 39134U 13015E   22276.69136525  .00034629  00000-0  11193-2 0  9997
2 39134  64.8608  65.9654 0034774 263.7620  95.9551 15.31334192523411
Epoch (UTC): 03 October 2022 16:35:33
Eccentricity: 0.0034774
inclination: 64.8608°
perigee height: 448 km
apogee height: 495 km
right ascension of ascending node: 65.9654°
argument of perigee: 263.7620°
revolutions per day: 15.31334192
mean anomaly at epoch: 95.9551°
orbit number at epoch: 52341

The dashed part of the orbit path shows where the satellite is in the earth's shadow,  

DLR